User: anonymous   Login
Location: Acton
(51.4942°N, 0.2232°W)
Time: 18:13:20
(UTC+00:00)
Language:

Meteor 1-22 Rocket - Orbit

View from above orbital plane
View from above orbital plane
View from above satellite
View from above satellite

Ground track
Ground track

The orbit data is extracted from the following two-line orbital elements,

1  8294U 75087B   20330.82949858 -.00000027 +00000-0 -22408-4 0  9992
2  8294 081.2171 236.7610 0106613 095.0484 266.2865 14.08652367321651
Epoch (UTC): 25 November 2020 19:54:28
Eccentricity: 0.0106613
inclination: 81.2171°
perigee height: 787 km
apogee height: 941 km
right ascension of ascending node: 236.7610°
argument of perigee: 95.0484°
revolutions per day: 14.08652367
mean anomaly at epoch: 266.2865°
orbit number at epoch: 32165

The dashed part of the orbit path shows where the satellite is in the earth's shadow,  

DLR